This demonstration page uses our WeatherBlox Daily Observations layout. Learn more.

Left ArrowRight Arrow

Hourly Observations for September 25, 2018

Temp ( °F °C ) Dew Point ( °F °C ) Humidity (%) Winds ( mph kmh ) Pressure ( in mb ) Visibility ( mi km ) Precip ( " mm )
12:53 am 00:53 Clear 69 20.6 57 13.9 66 66 SE 12 19 29.77 1008 10 16 0.00 0.00
1:53 am 01:53 Clear 68 20 58 14.4 70 70 SE 13 20 29.75 1008 10 16 0.00 0.00
2:53 am 02:53 Clear 66 18.9 60 15.6 81 81 SE 9 15 29.76 1008 10 16 0.00 0.00
3:53 am 03:53 Clear 65 18.3 61 16.1 87 87 SE 7 11 29.76 1008 10 16 0.00 0.00
4:53 am 04:53 Clear 63 17.2 61 16.1 93 93 SE 6 9 29.76 1008 10 16 0.00 0.00
5:53 am 05:53 Clear 62 16.7 60 15.6 93 93 ESE 7 11 29.77 1008 10 16 0.00 0.00
6:53 am 06:53 Clear 63 17.2 62 16.7 97 97 SE 6 9 29.78 1009 7 11 0.00 0.00
7:53 am 07:53 Sunny with Mist and Fog 63 17.2 62 16.7 97 97 SE 5 7 29.81 1010 4 6 0.00 0.00
8:53 am 08:53 Sunny with Mist and Fog 66 18.9 64 17.8 93 93 SE 8 13 29.83 1010 6 10 0.00 0.00
9:53 am 09:53 Sunny 70 21.1 64 17.8 82 82 SE 7 11 29.83 1010 10 16 0.00 0.00
10:53 am 10:53 Sunny 77 25 63 17.2 62 62 SE 5 7 29.83 1010 10 16 0.00 0.00
11:53 am 11:53 Sunny 82 27.8 60 15.6 47 47 Calm 29.83 1010 10 16 0.00 0.00
12:53 pm 12:53 Sunny 86 30 55 12.8 35 35 SW 3 6 29.81 1010 10 16 0.00 0.00
1:53 pm 13:53 Sunny 89 31.7 54 12.2 30 30 Calm 29.80 1009 10 16 0.00 0.00
2:53 pm 14:53 Sunny 94 34.4 56 13.3 28 28 Calm 29.77 1008 10 16 0.00 0.00
3:53 pm 15:53 Sunny 94 34.4 51 10.6 23 23 WSW 8 13 29.75 1007 10 16 0.00 0.00
4:53 pm 16:53 Sunny 95 35 49 9.4 21 21 Calm 29.74 1007 10 16 0.00 0.00
5:53 pm 17:53 Sunny 95 35 44 6.7 17 17 Calm 29.73 1007 10 16 0.00 0.00
6:53 pm 18:53 Sunny 91 32.8 51 10.6 26 26 S 6 9 29.74 1007 10 16 0.00 0.00
7:53 pm 19:53 Clear 81 27.2 54 12.2 39 39 SSE 9 15 29.78 1008 10 16 0.00 0.00
8:53 pm 20:53 Clear 78 25.6 54 12.2 43 43 SSE 8 13 29.80 1009 10 16 0.00 0.00
9:53 pm 21:53 Clear 76 24.4 55 12.8 48 48 ESE 8 13 29.83 1010 10 16 0.00 0.00
10:53 pm 22:53 Clear 75 23.9 60 15.6 60 60 SE 8 13 29.83 1010 10 16 0.00 0.00
11:53 pm 23:53 Clear 78 25.6 61 16.1 56 56 NNE 9 15 29.87 1012 10 16 0.00 0.00

Powered by AerisWeather